Regional Weather Roundup
Issued by NWS

Home | Current Version | Previous Version | Text Only | Print | Product List | Glossary On
Versions: 1 2 3 4 5 6 7 8 9 10 11 12 13 14 15 16 17 18 19 20 21 22 23 24 25 26 27 28 29 30 31 32 33 34 35 36 37 38 39 40 41 42 43 44 45 46 47 48 49 50
000
ASUS43 KMPX 270110
RWRMN
WEATHER ROUNDUP FOR MINNESOTA
NATIONAL WEATHER SERVICE TWIN CITIES/CHANHASSEN MN
800 PM CDT SUN MAR 26 2017


NOTE: "FAIR" INDICATES FEW OR NO CLOUDS BELOW 12,000 FEET WITH NO
SIGNIFICANT WEATHER AND/OR OBSTRUCTIONS TO VISIBILITY. N/A MEANS
CURRENT SKY AND/OR WEATHER CONDITIONS ARE NOT AVAILABLE.

MNZ060>063-068>070-270200-
   Twin Cities Metro

CITY           SKY/WX    TMP DP  RH WIND       PRES   REMARKS
TWIN CITIES    CLOUDY    41  36  82 N7        29.93S
ST PAUL        CLOUDY    41  38  89 N7        29.94S
CRYSTAL        CLOUDY    39  36  89 N9        29.93R FOG
BLAINE         CLOUDY    41  39  93 N8        29.93S
LAKEVILLE      CLOUDY    39  39 100 NW7       29.92S
EDEN PRAIRIE   CLOUDY    42  36  79 N6        29.92S
SOUTH ST PAUL  CLOUDY    41  39  92 N6        29.93S
LAKE ELMO      CLOUDY    39  37  93 N5        29.93S
$$
MNZ001>005-007-008-013>017-022>024-027-028-270200-
   Northwest Minnesota

CITY           SKY/WX    TMP DP  RH WIND       PRES   REMARKS
BEMIDJI        CLOUDY    42  32  68 CALM      29.92S
HALLOCK        CLEAR     39  37  93 CALM      29.96R FOG
ROSEAU         CLEAR     43  37  81 CALM      29.94S
WARROAD        CLEAR     37  34  87 W3        29.94S
THIEF RVR FALL CLEAR    N/A N/A N/A CALM      29.95S
CROOKSTON      PTCLDY    41  39  93 CALM      29.95S
FOSSTON        MOCLDY    39  36  87 N3        29.94S
DETROIT LAKES  CLOUDY    43  36  75 NW6       29.94S
MOORHEAD       MOCLDY    41  37  87 CALM      29.96S
PARK RAPIDS    CLOUDY    44  31  60 CALM      29.92R
MAHNOMEN       CLOUDY    42  37  84 W6        29.94R
$$
MNZ006-009>011-018-025>026-270200-
   North Central Minnesota

CITY           SKY/WX    TMP DP  RH WIND       PRES   REMARKS
BAUDETTE       CLOUDY    37  32  82 CALM      29.93S
FLAG ISLAND    CLEAR     36  30  80 SW6       29.93R
INTL FALLS     CLOUDY    39  31  72 CALM      29.93R
WASKISH        CLOUDY    39  32  75 CALM      29.93S
BIG FORK       CLOUDY    43  30  61 CALM      29.92S
LONGVILLE      PTCLDY    37  32  81 CALM      29.93R
GRAND RAPIDS   CLOUDY    37  32  82 CALM      29.94S
CRANE LAKE     CLOUDY    34  28  80 CALM      29.95R
ORR            MOCLDY    37  27  65 CALM      29.90S
COOK           PTCLDY    41  30  65 NW3       29.92S
WALKER         CLOUDY    41  32  70 CALM      29.92S
$$
MNZ012-019>021-037-270200-
   Northeast Minnesota

CITY           SKY/WX    TMP DP  RH WIND       PRES   REMARKS
DULUTH         FOG       33  33 100 CALM      29.93R VSB 1/2
ELY            CLOUDY    34  28  80 CALM      29.91S
HIBBING        PTCLDY    32  30  92 CALM      29.92R
EVELETH        CLOUDY    35  30  81 CALM      29.93S
DULUTH HARBOR  DRIZZLE   34  34 100 CALM      29.97R
TWO HARBORS    CLOUDY    36  30  80 CALM      29.93R
SILVER BAY     CLOUDY    34  34 100 CALM      29.92S FOG
GRAND MARAIS     N/A     35  34  96 CALM      29.96R
G MARAIS ARPRT CLOUDY    32  28  86 CALM      29.91S
$$
MNZ029>031-032-039>041-046>048-054>057-064-270200-
   West Central Minnesota

CITY           SKY/WX    TMP DP  RH WIND       PRES   REMARKS
FERGUS FALLS   CLOUDY    41  36  81 NW3       29.98S
WHEATON        PTCLDY    43  36  75 CALM      29.97R
MORRIS         CLOUDY    43  37  81 NW7       29.94R
ALEXANDRIA     CLOUDY    44  35  70 N5        29.93S
ELBOW LAKE     MOCLDY    41  37  85 NW5       29.95R
WADENA         CLOUDY    43  34  70 CALM      29.93R
GLENWOOD       CLOUDY    45  36  70 CALM      29.93F
APPLETON       PTCLDY    45  37  76 CALM      29.94S
BENSON         CLOUDY    46  34  61 N3        29.95S
ORTONVILLE     CLOUDY    43  36  75 N6        29.94R
MADISON        CLOUDY    45  41  87 N3        29.94S
WILLMAR        CLOUDY    45  37  76 CALM      29.95S
$$
MNZ033>034-036-042>043-049>051-058-059-270200-
   Central Minnesota

CITY           SKY/WX    TMP DP  RH WIND       PRES   REMARKS
ST CLOUD       CLOUDY    38  38 100 CALM      29.94S
SAUK CENTRE    CLOUDY    43  35  74 CALM      29.94S
PAYNESVILLE      N/A     42  36  80 NE3       29.94S
AITKIN         CLOUDY    41  32  70 CALM      29.92S
PINE RIVER     PTCLDY    41  34  75 CALM      29.97R
BRAINERD       CLOUDY    42  33  70 CALM      29.93S
STAPLES        CLOUDY    45  34  65 CALM      29.93R
LONG PRAIRIE   CLOUDY    43  34  70 CALM      29.93S
LITTLE FALLS   CLOUDY    41  34  75 CALM      29.94S
LITCHFIELD     CLOUDY    41  37  87 CALM      29.94S
BUFFALO        CLOUDY    38  36  91 N3        29.95S
MAPLE LAKE     CLOUDY    38  38  97 N5        29.95S
HUTCHINSON     CLOUDY    40  38  90 N7        29.94F
$$
MNZ037-044-045-052-053-270200-
   East Central Minnesota

CITY           SKY/WX    TMP DP  RH WIND       PRES   REMARKS
PRINCETON      CLOUDY    39  37  93 CALM      29.95S
MORA           CLOUDY    36  34  93 CALM      29.96S
CAMBRIDGE      DRIZZLE   39  36  87 CALM      29.93S
RUSH CITY      CLOUDY    36  34  94 N6        29.94S
MOOSE LAKE     CLOUDY    36  34  93 CALM      29.93R
CLOQUET        FOG       34  32  93 CALM      29.94R VSB 1/4
MCGREGOR       CLOUDY    37  34  87 CALM      29.93S
$$
MNZ071>073-080-081-089-090-097-098-270200-
   Southwest Minnesota

CITY           SKY/WX    TMP DP  RH WIND       PRES   REMARKS
MONTEVIDEO     CLOUDY    45  37  76 N3        29.95F
GRANITE FALLS  CLOUDY    45  40  82 NW3       29.95S
CANBY          CLOUDY    43  39  86 CALM      29.95S
MARSHALL       CLOUDY    42  39  89 NW6       29.94S
REDWOOD FALLS  CLOUDY    44  37  76 CALM      29.93S
OLIVIA         CLOUDY    43  36  75 CALM      29.92F
PIPESTONE      CLOUDY    43  36  75 NE6       29.92R
WINDOM         MOCLDY    41  39  93 NW6       29.92F
WORTHINGTON    CLOUDY    40  37  89 N10       29.92S
JACKSON        CLOUDY    41  37  87 N5        29.91F
TRACY          CLOUDY    42  39  88 N5        29.94R
SLAYTON        CLOUDY    39  37  93 N6        29.93S
$$
MNZ065>067-074>077-082>085-091>093-270200-
   South Central Minnesota

CITY           SKY/WX    TMP DP  RH WIND       PRES   REMARKS
MANKATO        CLOUDY    39  38  96 N12       29.92S
NEW ULM        CLOUDY    39  37  93 N6        29.93S
ST JAMES       CLOUDY    41  37  87 CALM      29.94R
FAIRMONT       CLOUDY    41  38  89 N5        29.92S
GLENCOE        CLOUDY    40  40 100 N3        29.93F FOG
FARIBAULT      CLOUDY    41  39  93 N3        29.92F
OWATONNA       CLOUDY    41  37  87 NW5       29.91S FOG
WASECA         CLOUDY    39  36  87 N6        29.92S
ALBERT LEA     CLOUDY    39  39 100 N8        29.90S FOG
$$
MNZ078>079-086>088-094>096-270200-
   Southeast Minnesota

CITY           SKY/WX    TMP DP  RH WIND       PRES   REMARKS
ROCHESTER      CLOUDY    39  39 100 N5        29.90R
RED WING       CLOUDY    43  39  87 NW3       29.92R FOG
STANTON        CLOUDY    41  39  93 CALM      29.91S FOG
DODGE CENTER   CLOUDY    39  37  93 NW6       29.91R FOG
WINONA         CLOUDY    41  37  87 NW5       29.92S
AUSTIN         CLOUDY    39  37  93 N3        29.90S
PRESTON        CLOUDY    38  37  94 N6        29.91R FOG
$$
ABBREVIATIONS USED IN REMARKS
   TC - TEMPERATURES IN CELSIUS
  WCI - WIND CHILL INDEX
   HX - HEAT INDEX
  VSB - VISIBILITY
$$




USA.gov is the U.S. government's official web portal to all federal, state and local government web resources and services.